AirNav   Everest Fuels
 
 900 users online  

4G1 Greenville Municipal Airport
Greenville, Pennsylvania, USA

GOING TO GREENVILLE?


FAA INFORMATION EFFECTIVE 10 OCTOBER 2019

Location

FAA Identifier: 4G1
Lat/Long: 41-26-48.3592N 080-23-28.3083W
41-26.805987N 080-23.471805W
41.4467664,-80.3911967
(estimated)
Elevation: 1206.2 ft. / 367.6 m (surveyed)
Variation: 09W (2015)
From city: 3 miles N of GREENVILLE, PA
Time zone: UTC -4 (UTC -5 during Standard Time)
Zip code: 16125

Airport Operations

Airport use: Open to the public
Activation date: 09/1954
Control tower: no
ARTCC: CLEVELAND CENTER
FSS: ALTOONA FLIGHT SERVICE STATION
NOTAMs facility: AOO (NOTAM-D service available)
Attendance: MON - SAT 0900-DUSK
UNATNDD THANKSGIVING, CHRISTMAS, NEW YEARS DAY & SUNDAYS.
Wind indicator: lighted
Segmented circle: yes
Lights: ACTVT MIRL; REIL; PAPI RWY 15/33 - CTAF.
Beacon: white-green (lighted land airport)
Operates sunset to sunrise.

Airport Communications

CTAF/UNICOM: 122.8
YOUNGSTOWN APPROACH: 133.95
YOUNGSTOWN DEPARTURE: 133.95
WX ASOS at GKJ (13 nm NE): 121.425 (814-337-2590)
WX ASOS at YNG (17 nm SW): PHONE 330-856-9357
  • APCH/DEP SVC PRVDD BY CLEVELAND ARTCC (ZOB) ON FREQS 120.775/298.95 (CHARDON RCAG) WHEN YOUNGSTOWN APCH CTL CLSD.

Nearby radio navigation aids

VOR radial/distance  VOR name  Freq  Var
YNGr066/14.5YOUNGSTOWN VORTAC109.0005W
FKLr277/(24.0)FRANKLIN VOR109.6006W
JFNr145/24.7JEFFERSON VOR/DME115.2005W
ERIr193/34.5ERIE VORTAC109.4006W
CXRr102/35.0CHARDON VOR/DME112.7005W
EWCr356/38.2ELLWOOD CITY VOR/DME115.8008W

 
NDB name  Hdg/Dist  Freq  Var  ID
CASTLE012/25.427209WUCP ..- -.-. .--.

Airport Services

Fuel available: 100LL
SELF-SVC FUEL AVBL.
Parking: tiedowns
Airframe service: MAJOR
Powerplant service: MAJOR
Bottled oxygen: NONE
Bulk oxygen: NONE

Runway Information

Runway 15/33

Dimensions: 3006 x 75 ft. / 916 x 23 m
Surface: asphalt, in good condition
UNEVEN PAVEMENT 100 FT DOWN RWY 15 & 200 FT DOWN RWY 33.
Weight bearing capacity: 
Single wheel: 12.5
Runway edge lights: medium intensity
Gradient: SE.
RUNWAY 15  RUNWAY 33
Latitude: 41-26.992167N41-26.610333N
Longitude: 080-23.681833W080-23.263667W
Elevation: 1163.3 ft.1206.2 ft.
Traffic pattern: leftleft
Runway heading: 150 magnetic, 141 true330 magnetic, 321 true
Markings: nonprecision, in fair conditionnonprecision, in fair condition
Visual slope indicator: 2-light PAPI on left (3.00 degrees glide path)2-light PAPI on left (3.00 degrees glide path)
Runway end identifier lights: yesyes
Touchdown point: yes, no lightsyes, no lights
Obstructions: trees, 4:1 slope to clear27 ft. trees, 381 ft. from runway, 117 ft. of centerline, 6:1 slope to clear

Runway 5/23

Dimensions: 2551 x 118 ft. / 778 x 36 m
Surface: turf, in good condition
Runway edge markings: RWY 05/23 MKD WITH YELLOW CONES.
Gradient: SW.
RUNWAY 5  RUNWAY 23
Latitude: 41-26.653233N41-26.969900N
Longitude: 080-23.654033W080-23.287350W
Elevation: 1196.0 ft.1183.7 ft.
Traffic pattern: leftleft
Runway heading: 050 magnetic, 041 true230 magnetic, 221 true
Displaced threshold: 984 ft.
DSPLCD THLD MKD WITH YELLOW CONES.
no
Markings: NSTD, in good conditionNSTD, in good condition
Touchdown point: yes, no lightsyes, no lights
Obstructions: 65 ft. trees, 353 ft. from runway, 151 ft. right of centerline, 5:1 slope to clear
20:1 TO DSPLCD THLD.
38 ft. trees, 144 ft. from runway, 123 ft. right of centerline, 3:1 slope to clear

Airport Ownership and Management from official FAA records

Ownership: Publicly-owned
Owner: BOROUGH OF GREENVILLE
MUNICIPAL BLDG
GREENVILLE, PA 16125
Phone 724-588-4193
Manager: FRED MURRIN
511 E JAMESTOWN RD
GREENVILLE, PA 16125
Phone 724-588-1665

Airport Operational Statistics

Aircraft based on the field: 22
Single engine airplanes: 21
Multi engine airplanes: 1
    
Aircraft operations: avg 50/day *
82% local general aviation
18% transient general aviation
<1% military
* for 12-month period ending 28 May 2019

Additional Remarks

DEER & BIRDS ON & INVOF ARPT.
PAEW ON & INVOF ARPT.
FOR APCH/DEP CTC CLEVELAND ARTCC AT 440-774-0227 WHEN YOUNGSTOWN APCH CTL CLSD.
FOR CD CTC YOUNGSTOWN APCH AT 330-856-4806, WHEN APCH CLSD CTC CLEVELAND ARTCC AT 440-774-0490.

Instrument Procedures

NOTE: All procedures below are presented as PDF files. If you need a reader for these files, you should download the free Adobe Reader.

NOT FOR NAVIGATION. Please procure official charts for flight.
FAA instrument procedures published for use from 10 October 2019 at 0901Z to 7 November 2019 at 0900Z.

 
IAPs - Instrument Approach Procedures
RNAV (GPS)-B **CHANGED**   download (141KB)
NOTE: Special Take-Off Minimums/Departure Procedures apply   download (210KB)

Other nearby airports with instrument procedures:

KGKJ - Port Meadville Airport (13 nm NE)
KYNG - Youngstown-Warren Regional Airport (17 nm SW)
29D - Grove City Airport (21 nm SE)
KHZY - Northeast Ohio Regional Airport (24 nm NW)
KFKL - Venango Regional Airport (24 nm E)
 
Loc | Ops | Rwys | IFR | FBO | Links
Com | Nav | Svcs | Stats | Notes
Area around 4G1 (Greenville Municipal Airport)
 
Road maps at: MapQuest Bing Google
 
Aerial photo
WARNING: Photo may not be current or correct
Aerial photo of 4G1 (Greenville Municipal Airport)
Photo by Bill Pixley
Photo taken 20-Sep-2017
looking west.

Do you have a better or more recent aerial photo of Greenville Municipal Airport that you would like to share? If so, please send us your photo.

 
Sectional chart

 
Airport distance calculator
Flying to Greenville Municipal Airport? Find the distance to fly.

From to 4G1

Sunrise and sunset
Times for 18-Oct-2019
 Local
(UTC-4)
 Zulu
(UTC)
Morning civil twilight07:1011:10
Sunrise07:3811:38
Sunset18:3622:36
Evening civil twilight19:0423:04

Current date and time
Zulu (UTC)  18-Oct-2019 23:52:49
Local (UTC-4)  18-Oct-2019 19:52:49
 
METAR
KGKJ 
14nm NE 
182253Z AUTO 27003KT 10SM FEW030 06/02 A3004 RMK AO2 SLP179 T00610022 TSNO
KYNG 
17nm SW 
182251Z 09003KT 10SM BKN250 07/03 A3004 RMK AO2 SLP178 T00720033
KFKL 
24nm E 
182256Z AUTO 28003KT 10SM CLR 06/03 A3004 RMK AO2 SLP184 T00610033
KHZY 
24nm NW 
182253Z AUTO 00000KT 10SM CLR 06/04 A3006 RMK AO2 SLP182 T00610039
KUCP 
25nm S 
182256Z AUTO 00000KT 10SM CLR 07/03 A3005 RMK AO2 SLP197 T00720033 PNO $
TAF
KYNG 
17nm SW 
181720Z 1818/1918 32005KT P6SM OVC035 FM182100 00000KT P6SM OVC035 FM190600 12004KT P6SM SKC
NOTAMs
Click for the latest NOTAMs
NOTAMs are issued by the DoD/FAA and will open in a separate window not controlled by AirNav.

 

 
 

FBO, Fuel Providers, and Aircraft Ground Support

  
 Business Name 
 
 Contact 
 
 Services / Description 
 
Fuel Prices
 
Comments
  
Elbow Street Aviation Services 724-588-1665
no information available

If you are affiliated with Elbow Street Aviation Services and would like to show here your services, contact info, web link, logo, and more, click here
100LL
AS $5.25 
 Updated 17-Oct-2019
 
   write
AS=Assisted/Self Service
Update Fuel Prices
 

Would you like to see your business listed on this page?

 If your business provides an interesting product or service to pilots, flight crews, aircraft, or users of the Greenville Municipal Airport, you should consider listing it here.  To start the listing process, click on the button below
 
Add a business
 

Other Pages about Greenville Municipal Airport

Update a link
 
Copyright © AirNav, LLC. All rights reserved. Privacy Policy  Contact